User: anonymous   Login
Location: Unspecified
(0.0000°N, 0.0000°E)
Time: 17:17:15
(UTC+01:00)
Language:

Cosmos 2279 Rocket - Orbit

View from above orbital plane
View from above orbital plane
View from above satellite
View from above satellite

Ground track
Ground track

The orbit data is extracted from the following two-line orbital elements,

1 23093U 94024B   14303.01167462  .00000095  00000-0  80386-4 0  9289
2 23093 082.9446 109.3045 0010585 171.8209 188.3123 13.77632267499081
Epoch (UTC): 30 October 2014 00:16:48
Eccentricity: 0.0010585
inclination: 82.9446°
perigee height: 964 km
apogee height: 980 km
right ascension of ascending node: 109.3045°
argument of perigee: 171.8209°
revolutions per day: 13.77632267
mean anomaly at epoch: 188.3123°
orbit number at epoch: 49908

The dashed part of the orbit path shows where the satellite is in the earth's shadow,  

DLR